Location: Ecklingerode
(51.5036°N, 10.3122°E)
Time: 14:54:20
(UTC+00:00)

Cosmos 1340 - Pass Details

Date: 29 October 2020
Orbit: 501 x 504 km, 81.2° (Epoch: 28 November)

Event Time Altitude Azimuth Distance (km) Brightness Sun altitude
Rises 17:19:24 0° 344° (NNW) 2,620 6.4 -13.4°
Reaches altitude 10° 17:21:33 10° 342° (NNW) 1,730 5.5 -13.7°
Maximum altitude 17:25:18 63° 261° (W) 571 3.1 -14.3°
Drops below altitude 10° 17:29:02 10° 180° (S) 1,716 5.4 -14.9°
Sets 17:31:09 0° 177° (S) 2,596 6.3 -15.2°
